Location: Albany
(35.0000°S, 118.0000°E)
Time: 21:53:10
(UTC-05:00)

Cosmos 1626 - Visible Passes

Search period start: 21 November 2014 00:00
Search period end: 01 December 2014 00:00
Orbit: 513 x 518 km, 82.5° (Epoch: 20 November)

Date Brightness Start Highest point End Pass type
(mag) Time Alt. Az. Time Alt. Az. Time Alt. Az.
21 Nov 2.6 13:30:30 10° S 13:34:23 61° E 13:34:52 55° ENE visible
22 Nov 3.0 13:15:38 10° S 13:19:26 48° E 13:19:33 47° E visible
23 Nov 3.5 13:00:47 10° S 13:04:16 38° ESE 13:04:16 38° ESE visible
23 Nov 4.5 14:38:49 10° WSW 14:39:15 11° WSW 14:39:15 11° WSW visible
24 Nov 3.9 12:45:57 10° SSE 12:49:01 30° ESE 12:49:01 30° ESE visible
24 Nov 4.4 14:22:55 10° WSW 14:24:00 13° WSW 14:24:00 13° WSW visible
25 Nov 4.3 12:31:09 10° SSE 12:33:47 24° ESE 12:33:47 24° ESE visible
25 Nov 4.3 14:07:25 10° SW 14:08:46 15° WSW 14:08:46 15° WSW visible
26 Nov 4.7 12:16:24 10° SSE 12:18:33 19° ESE 12:18:33 19° ESE visible
26 Nov 4.2 13:52:03 10° SW 13:53:32 17° WSW 13:53:32 17° WSW visible
27 Nov 4.9 12:01:42 10° SSE 12:03:21 16° ESE 12:03:21 16° ESE visible
27 Nov 4.2 13:36:46 10° SW 13:38:20 19° SW 13:38:20 19° SW visible
28 Nov 5.1 11:47:07 10° SE 11:48:09 13° ESE 11:48:09 13° ESE visible
28 Nov 4.1 13:21:31 10° SSW 13:23:08 20° SW 13:23:08 20° SW visible
29 Nov 5.3 11:32:49 10° SE 11:32:57 10° ESE 11:32:57 10° ESE visible
29 Nov 4.1 13:06:18 10° SSW 13:07:57 22° SW 13:07:57 22° SW visible
30 Nov 4.2 12:51:07 10° SSW 12:52:45 23° SSW 12:52:45 23° SSW visible
